EZY17XA LPPR-EGCC

Flight info

Callsign EZY17XA
Flight time 2h 1m
Altitude 35000
Route TURON P600 ASDEB/N0455F360 DCT KORUL/N0457F380 DCT KOLEK DCT EBOMO DCT RUSIB DCT NOZHU/N0450F370 DCT SHIRI DCT TOJAQ DCT EPACE DCT ACCOP DCT MOCQO/N0448F380 P16 AXCIS
Aircraft A320/M-SDE3FGHIRWY/LB1

Departure

Time 2026-05-04 16:11
Airport Francisco de Sá Carneiro Airport (LPPR)

Arrival

Time 2026-05-04 18:12
Airport Manchester Airport (EGCC)
Time Latitude Longitude Altitude Speed Heading
2026-05-04 15:34 41.23901 -8.67387 242 ft 0 kts 121°
2026-05-04 16:02 41.23905 -8.67394 242 ft 3 kts 116°
2026-05-04 16:03 41.23908 -8.67418 242 ft 3 kts 72°
2026-05-04 16:03 41.23908 -8.67435 241 ft 3 kts 126°
2026-05-04 16:03 41.23922 -8.67455 240 ft 3 kts 155°
2026-05-04 16:03 41.23941 -8.67460 240 ft 3 kts 198°
2026-05-04 16:04 41.23958 -8.67449 240 ft 3 kts 213°
2026-05-04 16:04 41.23986 -8.67425 242 ft 0 kts 208°
2026-05-04 16:07 41.23958 -8.67449 240 ft 13 kts 216°
2026-05-04 16:07 41.23682 -8.67441 237 ft 12 kts 182°
2026-05-04 16:08 41.23627 -8.67513 237 ft 12 kts 254°
2026-05-04 16:08 41.23614 -8.67599 238 ft 4 kts 259°
2026-05-04 16:09 41.23598 -8.67799 230 ft 10 kts 313°
2026-05-04 16:09 41.23650 -8.67821 229 ft 0 kts 351°
2026-05-04 16:10 41.23707 -8.67834 226 ft 27 kts 350°
2026-05-04 16:11 41.26124 -8.68466 692 ft 164 kts 346°
2026-05-04 16:11 41.27268 -8.68752 1428 ft 170 kts 347°
2026-05-04 16:12 41.31317 -8.69706 2757 ft 231 kts 345°
2026-05-04 16:12 41.36382 -8.71135 5271 ft 256 kts 346°
2026-05-04 16:13 41.39931 -8.72085 7031 ft 267 kts 346°
2026-05-04 16:13 41.43698 -8.72435 8717 ft 282 kts
2026-05-04 16:14 41.47628 -8.71440 10317 ft 296 kts
2026-05-04 16:14 41.51979 -8.70353 11025 ft 335 kts
2026-05-04 16:15 41.59021 -8.68564 13293 ft 349 kts
2026-05-04 16:16 41.63852 -8.67333 14696 ft 357 kts
2026-05-04 16:16 41.71309 -8.65439 16656 ft 369 kts
2026-05-04 16:17 41.76416 -8.64139 17925 ft 378 kts
2026-05-04 16:18 41.84276 -8.62127 19635 ft 389 kts
2026-05-04 16:18 41.86942 -8.61447 20167 ft 392 kts
2026-05-04 16:19 41.95088 -8.59359 21738 ft 402 kts
2026-05-04 16:19 42.00630 -8.57931 22773 ft 409 kts
2026-05-04 16:20 42.09125 -8.55838 24111 ft 417 kts
2026-05-04 16:20 42.14915 -8.54888 24912 ft 421 kts
2026-05-04 16:21 42.23756 -8.53665 26068 ft 430 kts
2026-05-04 16:22 42.29757 -8.52725 26806 ft 437 kts
2026-05-04 16:22 42.38902 -8.51234 27928 ft 445 kts
2026-05-04 16:23 42.48230 -8.49737 28977 ft 454 kts
2026-05-04 16:24 42.60200 -8.42940 30153 ft 478 kts 24°
2026-05-04 16:25 42.66111 -8.38724 30702 ft 482 kts 24°
2026-05-04 16:26 42.77030 -8.30901 31843 ft 484 kts 24°
2026-05-04 16:26 42.85954 -8.24513 32946 ft 482 kts 25°
2026-05-04 16:27 42.91878 -8.20255 33675 ft 480 kts 25°
2026-05-04 16:28 43.00719 -8.13886 34633 ft 478 kts 25°
2026-05-04 16:28 43.09530 -8.07523 35071 ft 474 kts 25°
2026-05-04 16:29 43.21158 -7.99100 35070 ft 472 kts 25°
2026-05-04 16:31 43.35645 -7.88527 35057 ft 472 kts 25°
2026-05-04 16:32 43.53056 -7.75779 35050 ft 473 kts 26°
2026-05-04 16:33 43.64661 -7.67202 35043 ft 473 kts 26°
2026-05-04 16:34 43.73366 -7.60768 35033 ft 473 kts 26°
2026-05-04 16:35 43.90749 -7.47840 35017 ft 472 kts 26°
2026-05-04 16:36 43.99434 -7.41350 35020 ft 473 kts 26°
2026-05-04 16:37 44.08130 -7.34829 35025 ft 473 kts 26°
2026-05-04 16:38 44.19723 -7.26097 35022 ft 473 kts 26°
2026-05-04 16:39 44.34195 -7.15148 35006 ft 473 kts 27°
2026-05-04 16:40 44.45764 -7.06340 34996 ft 473 kts 27°
2026-05-04 16:41 44.60193 -6.95318 34993 ft 474 kts 27°
2026-05-04 16:43 44.74643 -6.84197 34989 ft 474 kts 27°
2026-05-04 16:43 44.83318 -6.77487 34987 ft 474 kts 27°
2026-05-04 16:45 45.00654 -6.64032 34980 ft 474 kts 27°
2026-05-04 16:46 45.15086 -6.52746 34983 ft 474 kts 27°
2026-05-04 16:47 45.26628 -6.43688 34981 ft 474 kts 28°
2026-05-04 16:48 45.38175 -6.34575 34982 ft 474 kts 28°
2026-05-04 16:49 45.49706 -6.25423 34984 ft 474 kts 28°
2026-05-04 16:50 45.61196 -6.16270 34986 ft 474 kts 28°
2026-05-04 16:51 45.69824 -6.09359 34986 ft 473 kts 28°
2026-05-04 16:52 45.81316 -6.00149 34987 ft 473 kts 28°
2026-05-04 16:53 45.89919 -5.93192 34989 ft 473 kts 28°
2026-05-04 16:54 46.01376 -5.83902 34993 ft 472 kts 28°
2026-05-04 16:55 46.18528 -5.69918 34990 ft 472 kts 29°
2026-05-04 16:56 46.32807 -5.58205 34981 ft 472 kts 29°
2026-05-04 16:57 46.41380 -5.51153 34981 ft 473 kts 29°
2026-05-04 16:58 46.52769 -5.41709 34982 ft 473 kts 30°
2026-05-04 17:00 46.69901 -5.27447 34984 ft 473 kts 30°
2026-05-04 17:01 46.84189 -5.15463 34988 ft 474 kts 30°
2026-05-04 17:02 46.95606 -5.05832 34985 ft 473 kts 30°
2026-05-04 17:03 47.04139 -4.98586 34984 ft 472 kts 30°
2026-05-04 17:03 47.12676 -4.91342 34986 ft 472 kts 30°
2026-05-04 17:04 47.23077 -4.82453 34987 ft 472 kts 30°
2026-05-04 17:05 47.35341 -4.71936 34989 ft 472 kts 30°
2026-05-04 17:06 47.42924 -4.65397 34994 ft 472 kts 31°
2026-05-04 17:07 47.50462 -4.58876 34997 ft 472 kts 31°
2026-05-04 17:07 47.57085 -4.53128 34997 ft 472 kts 31°
2026-05-04 17:08 47.65581 -4.45738 34995 ft 472 kts 31°
2026-05-04 17:09 47.71200 -4.40833 34995 ft 471 kts 31°
2026-05-04 17:09 47.76848 -4.35882 34997 ft 471 kts 31°
2026-05-04 17:10 47.92028 -4.27043 34998 ft 471 kts 15°
2026-05-04 17:11 47.98328 -4.24338 34997 ft 471 kts 16°
2026-05-04 17:12 48.07791 -4.20257 35004 ft 471 kts 15°
2026-05-04 17:13 48.23535 -4.13475 35000 ft 470 kts 16°
2026-05-04 17:14 48.36118 -4.08021 34999 ft 470 kts 16°
2026-05-04 17:15 48.45526 -4.03910 34999 ft 469 kts 16°
2026-05-04 17:16 48.58069 -3.98410 35006 ft 469 kts 16°
2026-05-04 17:17 48.70614 -3.92885 35004 ft 469 kts 16°
2026-05-04 17:18 48.83092 -3.87366 35001 ft 469 kts 16°
2026-05-04 17:19 48.95620 -3.81806 34999 ft 469 kts 14°
2026-05-04 17:19 49.02064 -3.80591 34998 ft 467 kts
2026-05-04 17:20 49.08545 -3.80218 35018 ft 464 kts
2026-05-04 17:20 49.18192 -3.79614 35028 ft 461 kts
2026-05-04 17:21 49.30971 -3.78833 35022 ft 458 kts
2026-05-04 17:22 49.37331 -3.78450 35019 ft 457 kts
2026-05-04 17:23 49.50042 -3.77657 35011 ft 456 kts
2026-05-04 17:24 49.59556 -3.77070 35005 ft 456 kts
2026-05-04 17:25 49.72227 -3.76230 35006 ft 455 kts
2026-05-04 17:26 49.84855 -3.74665 35007 ft 455 kts
2026-05-04 17:27 50.00587 -3.72753 35008 ft 455 kts
2026-05-04 17:28 50.13202 -3.71271 35012 ft 454 kts
2026-05-04 17:29 50.32094 -3.69002 35015 ft 453 kts
2026-05-04 17:31 50.47789 -3.66839 35012 ft 452 kts
2026-05-04 17:32 50.63386 -3.63671 35011 ft 452 kts
2026-05-04 17:33 50.75868 -3.61303 35005 ft 451 kts
2026-05-04 17:34 50.88322 -3.58909 35007 ft 451 kts
2026-05-04 17:35 51.03873 -3.55905 35008 ft 450 kts
2026-05-04 17:36 51.10092 -3.54691 35012 ft 450 kts
2026-05-04 17:36 51.16300 -3.53479 35018 ft 450 kts
2026-05-04 17:37 51.22478 -3.52266 35024 ft 449 kts
2026-05-04 17:37 51.28685 -3.51050 35028 ft 449 kts
2026-05-04 17:38 51.34889 -3.49819 35037 ft 449 kts
2026-05-04 17:38 51.41089 -3.48593 35036 ft 448 kts
2026-05-04 17:39 51.50376 -3.46770 35035 ft 448 kts
2026-05-04 17:39 51.56551 -3.45546 35034 ft 447 kts
2026-05-04 17:40 51.62724 -3.44310 35036 ft 447 kts
2026-05-04 17:40 51.68900 -3.43073 35032 ft 446 kts
2026-05-04 17:41 51.75055 -3.41840 35033 ft 445 kts
2026-05-04 17:41 51.81200 -3.40610 35030 ft 444 kts
2026-05-04 17:42 51.87339 -3.39370 35028 ft 444 kts
2026-05-04 17:42 51.93470 -3.38157 34889 ft 445 kts
2026-05-04 17:43 51.96578 -3.37716 33945 ft 452 kts
2026-05-04 17:43 51.98664 -3.37533 33455 ft 451 kts
2026-05-04 17:43 52.01783 -3.37365 32917 ft 446 kts
2026-05-04 17:43 52.04866 -3.37251 32318 ft 442 kts
2026-05-04 17:44 52.07926 -3.37130 31731 ft 437 kts
2026-05-04 17:44 52.10959 -3.36975 31157 ft 434 kts
2026-05-04 17:44 52.13957 -3.36783 30596 ft 430 kts
2026-05-04 17:44 52.16947 -3.36564 30023 ft 427 kts
2026-05-04 17:45 52.19906 -3.36335 29429 ft 423 kts
2026-05-04 17:45 52.22827 -3.36105 28892 ft 418 kts
2026-05-04 17:45 52.25715 -3.35883 28359 ft 413 kts
2026-05-04 17:45 52.28567 -3.35674 27836 ft 408 kts
2026-05-04 17:46 52.31385 -3.35471 27331 ft 403 kts
2026-05-04 17:46 52.34142 -3.35268 26836 ft 399 kts
2026-05-04 17:46 52.36900 -3.35065 26358 ft 394 kts
2026-05-04 17:46 52.39636 -3.34859 25884 ft 391 kts
2026-05-04 17:47 52.42333 -3.34657 25431 ft 386 kts
2026-05-04 17:47 52.45003 -3.34458 24993 ft 382 kts
2026-05-04 17:47 52.47645 -3.34263 24553 ft 378 kts
2026-05-04 17:47 52.50263 -3.34069 24114 ft 375 kts
2026-05-04 17:48 52.52860 -3.33881 23667 ft 372 kts
2026-05-04 17:48 52.55439 -3.33694 23165 ft 370 kts
2026-05-04 17:48 52.57996 -3.33506 22722 ft 366 kts
2026-05-04 17:48 52.60522 -3.33320 22271 ft 362 kts
2026-05-04 17:49 52.63012 -3.32858 21827 ft 358 kts 12°
2026-05-04 17:49 52.65418 -3.31698 21377 ft 355 kts 21°
2026-05-04 17:49 52.67732 -3.30302 20936 ft 353 kts 21°
2026-05-04 17:49 52.70037 -3.28918 20472 ft 352 kts 21°
2026-05-04 17:50 52.72330 -3.27546 20021 ft 351 kts 20°
2026-05-04 17:50 52.74646 -3.26162 19682 ft 359 kts 20°
2026-05-04 17:50 52.77008 -3.24752 19338 ft 362 kts 20°
2026-05-04 17:50 52.79378 -3.23336 18989 ft 361 kts 20°
2026-05-04 17:51 52.81742 -3.21925 18634 ft 361 kts 20°
2026-05-04 17:51 52.84097 -3.20516 18284 ft 360 kts 20°
2026-05-04 17:51 52.86406 -3.19099 17891 ft 357 kts 21°
2026-05-04 17:51 52.88701 -3.17570 17436 ft 355 kts 22°
2026-05-04 17:52 52.90964 -3.15979 16998 ft 352 kts 23°
2026-05-04 17:52 52.93202 -3.14369 16575 ft 349 kts 23°
2026-05-04 17:52 52.95424 -3.12762 16167 ft 347 kts 23°
2026-05-04 17:52 52.97633 -3.11175 15767 ft 344 kts 23°
2026-05-04 17:53 52.99824 -3.09620 15371 ft 342 kts 22°
2026-05-04 17:53 53.02012 -3.08082 14973 ft 340 kts 22°
2026-05-04 17:53 53.04194 -3.06477 14582 ft 338 kts 29°
2026-05-04 17:53 53.05987 -3.04022 14051 ft 333 kts 51°
2026-05-04 17:54 53.07064 -3.00720 13325 ft 329 kts 71°
2026-05-04 17:54 53.07721 -2.97025 12525 ft 328 kts 75°
2026-05-04 17:54 53.08309 -2.93381 11808 ft 325 kts 75°
2026-05-04 17:54 53.08874 -2.89817 11116 ft 321 kts 75°
2026-05-04 17:55 53.09436 -2.86241 10435 ft 318 kts 75°
2026-05-04 17:55 53.09974 -2.82778 10161 ft 301 kts 75°
2026-05-04 17:55 53.10485 -2.79449 9660 ft 294 kts 75°
2026-05-04 17:55 53.10986 -2.76178 9043 ft 290 kts 75°
2026-05-04 17:56 53.11466 -2.73028 8869 ft 271 kts 75°
2026-05-04 17:56 53.11912 -2.70075 8620 ft 257 kts 75°
2026-05-04 17:56 53.12338 -2.67221 8170 ft 252 kts 75°
2026-05-04 17:56 53.12755 -2.64410 8050 ft 251 kts 75°
2026-05-04 17:57 53.13172 -2.61582 8057 ft 252 kts 75°
2026-05-04 17:57 53.13591 -2.58744 8058 ft 252 kts 75°
2026-05-04 17:57 53.14008 -2.55909 8058 ft 252 kts 75°
2026-05-04 17:57 53.14424 -2.53078 8059 ft 252 kts 75°
2026-05-04 17:58 53.14841 -2.50241 8056 ft 252 kts 75°
2026-05-04 17:58 53.15256 -2.47406 8058 ft 252 kts 75°
2026-05-04 17:58 53.15669 -2.44571 8059 ft 252 kts 75°
2026-05-04 17:58 53.16081 -2.41738 8057 ft 252 kts 75°
2026-05-04 17:59 53.16492 -2.38899 8057 ft 252 kts 75°
2026-05-04 17:59 53.16908 -2.36025 8055 ft 252 kts 75°
2026-05-04 17:59 53.17720 -2.30390 8058 ft 251 kts 75°
2026-05-04 18:00 53.18127 -2.27555 8060 ft 252 kts 76°
2026-05-04 18:00 53.18534 -2.24718 8059 ft 252 kts 75°
2026-05-04 18:00 53.18941 -2.21880 8057 ft 252 kts 75°
2026-05-04 18:00 53.19347 -2.19047 8059 ft 251 kts 75°
2026-05-04 18:01 53.19895 -2.16302 7872 ft 247 kts 57°
2026-05-04 18:01 53.21003 -2.14156 7520 ft 244 kts 42°
2026-05-04 18:01 53.22244 -2.12237 7187 ft 243 kts 40°
2026-05-04 18:02 53.24734 -2.08493 6579 ft 239 kts 40°
2026-05-04 18:02 53.25967 -2.06647 6242 ft 237 kts 40°
2026-05-04 18:02 53.27193 -2.04810 5911 ft 236 kts 40°
2026-05-04 18:02 53.28413 -2.02982 5595 ft 235 kts 40°
2026-05-04 18:03 53.29625 -2.01168 5285 ft 234 kts 40°
2026-05-04 18:03 53.30834 -1.99357 4946 ft 233 kts 40°
2026-05-04 18:03 53.32035 -1.97551 4620 ft 232 kts 40°
2026-05-04 18:03 53.33230 -1.95750 4287 ft 231 kts 40°
2026-05-04 18:04 53.34460 -1.94053 3965 ft 227 kts 26°
2026-05-04 18:04 53.35919 -1.93448 3839 ft 209 kts
2026-05-04 18:04 53.38634 -1.93595 3619 ft 186 kts 355°
2026-05-04 18:05 53.39924 -1.93708 3524 ft 185 kts 355°
2026-05-04 18:05 53.41209 -1.93821 3503 ft 185 kts 355°
2026-05-04 18:05 53.42494 -1.93932 3504 ft 184 kts 355°
2026-05-04 18:05 53.43776 -1.94041 3507 ft 184 kts 355°
2026-05-04 18:06 53.46158 -1.95235 3512 ft 182 kts 323°
2026-05-04 18:06 53.47159 -1.96536 3506 ft 182 kts 321°
2026-05-04 18:06 53.48114 -1.97919 3503 ft 181 kts 309°
2026-05-04 18:07 53.48466 -1.99897 3508 ft 184 kts 261°
2026-05-04 18:07 53.47809 -2.01712 3511 ft 186 kts 226°
2026-05-04 18:07 53.46953 -2.03347 3508 ft 187 kts 233°
2026-05-04 18:07 53.46148 -2.05058 3412 ft 185 kts 233°
2026-05-04 18:08 53.45363 -2.06707 3210 ft 176 kts 232°
2026-05-04 18:08 53.44616 -2.08271 2985 ft 168 kts 233°
2026-05-04 18:08 53.43893 -2.09780 2764 ft 165 kts 233°
2026-05-04 18:08 53.43174 -2.11281 2549 ft 164 kts 233°
2026-05-04 18:09 53.41748 -2.14254 2108 ft 163 kts 233°
2026-05-04 18:09 53.40336 -2.17192 1682 ft 161 kts 234°
2026-05-04 18:10 53.39639 -2.18641 1431 ft 155 kts 234°
2026-05-04 18:10 53.38996 -2.19975 1209 ft 140 kts 234°
2026-05-04 18:10 53.38402 -2.21209 1013 ft 133 kts 233°
2026-05-04 18:10 53.37827 -2.22405 831 ft 130 kts 233°
2026-05-04 18:11 53.37264 -2.23573 660 ft 127 kts 231°
2026-05-04 18:11 53.36712 -2.24718 484 ft 126 kts 231°
2026-05-04 18:11 53.36164 -2.25855 329 ft 126 kts 231°
2026-05-04 18:11 53.35645 -2.26933 259 ft 106 kts 233°
2026-05-04 18:12 53.35288 -2.27678 243 ft 57 kts 231°
2026-05-04 18:12 53.35077 -2.28110 231 ft 46 kts 231°
2026-05-04 18:12 53.34955 -2.28524 223 ft 20 kts 258°
2026-05-04 18:12 53.34952 -2.28716 222 ft 4 kts 307°
2026-05-04 18:13 53.34953 -2.28716 222 ft 0 kts 307°
2026-05-04 18:13 53.34985 -2.28752 222 ft 7 kts 350°
2026-05-04 18:13 53.35064 -2.28650 224 ft 9 kts 50°
2026-05-04 18:14 53.35109 -2.28550 227 ft 12 kts 55°
2026-05-04 18:14 53.35158 -2.28446 230 ft 10 kts 50°
2026-05-04 18:14 53.35207 -2.28350 233 ft 10 kts 49°
2026-05-04 18:15 53.35382 -2.28169 239 ft 16 kts
2026-05-04 18:15 53.35534 -2.28077 245 ft 19 kts 40°
2026-05-04 18:15 53.35607 -2.27939 249 ft 14 kts 46°
2026-05-04 18:16 53.35680 -2.27886 249 ft 12 kts
2026-05-04 18:16 53.35768 -2.27869 248 ft 11 kts
2026-05-04 18:16 53.35831 -2.27861 251 ft 8 kts
2026-05-04 18:17 53.36031 -2.27832 255 ft 5 kts 353°
2026-05-04 18:17 53.36062 -2.27851 255 ft 7 kts 332°
2026-05-04 18:17 53.36233 -2.28083 255 ft 16 kts 359°
2026-05-04 18:18 53.36293 -2.28053 255 ft 3 kts 25°
2026-05-04 18:18 53.36295 -2.28051 255 ft 2 kts 24°
2026-05-04 18:18 53.36342 -2.28013 255 ft 9 kts 40°
2026-05-04 18:18 53.36386 -2.27946 255 ft 8 kts 38°
2026-05-04 18:19 53.36469 -2.27992 255 ft 6 kts 326°
2026-05-04 18:19 53.36502 -2.28028 255 ft 5 kts 322°
2026-05-04 18:19 53.36522 -2.28056 255 ft 2 kts 329°
2026-05-04 18:20 53.36549 -2.28037 255 ft 6 kts 43°
2026-05-04 18:20 53.36566 -2.28009 255 ft 4 kts 44°
2026-05-04 18:20 53.36579 -2.27987 255 ft 0 kts 45°